Location: Pf�ffikon
(47.2015°N, 8.7809°E)
Time: 18:09:19
(UTC+00:00)

STARLINK-1308 - Pass Details

Date: 07 June 2020
Orbit: 548 x 551 km, 53.0° (Epoch: 13 July)

Event Time Altitude Azimuth Distance (km) Brightness Sun altitude
Exits shadow 00:19:24 18° 126° (SE) 1,359 5.4 -18.9°
Drops below altitude 10° 00:21:58 10° 87° (E) 1,818 6.5 -18.8°
Enters shadow 01:20:38 -67° 239° (WSW) 12,313 10.4 -15.2°
Maximum altitude 01:58:08 86° 151° (SSE) 553 3.6 -11.9°
